This is the latest recevied weather packets stored in our database for station/object N1ICS-1. If no packets are shown the sender has not sent any weather packets the latest 10 day(s).
| Time | Temp. | Humidity | Pressure | Rain* | Wind** | Luminosity | Snow |
|---|---|---|---|---|---|---|---|
| 1777130102 | 16.11° C | 92% | 1013.7 hPa | 0 mm | - | 351 W/m² | - |
| 1777129802 | 16.11° C | 91% | 1013.7 hPa | 0 mm | - | 358 W/m² | - |
| 1777129502 | 15.56° C | 92% | 1013.7 hPa | 0 mm | - | 367 W/m² | - |
| 1777129202 | 16.11° C | 93% | 1013.5 hPa | 0 mm | - | 281 W/m² | - |
| 1777128902 | 15.56° C | 92% | 1013.7 hPa | 0 mm | - | 383 W/m² | - |
| 1777128601 | 15.56° C | 92% | 1013.7 hPa | 0 mm | - | 373 W/m² | - |
| 1777128302 | 15.56° C | 94% | 1013.6 hPa | 0 mm | - | 374 W/m² | - |
| 1777128002 | 15° C | 94% | 1013.6 hPa | 0 mm | - | 344 W/m² | - |
| 1777127701 | 15° C | 94% | 1013.5 hPa | 0 mm | - | 295 W/m² | - |
| 1777127402 | 15° C | 94% | 1013.7 hPa | 0 mm | - | 203 W/m² | - |
| 1777127102 | 15° C | 94% | 1013.6 hPa | 0 mm | - | 239 W/m² | - |
| 1777126802 | 15° C | 95% | 1013.6 hPa | 0 mm | - | 320 W/m² | - |
| 1777126502 | 15° C | 96% | 1013.4 hPa | 0 mm | - | 336 W/m² | - |
| 1777126202 | 14.44° C | 96% | 1013.4 hPa | 0 mm | - | 345 W/m² | - |
| 1777125901 | 14.44° C | 96% | 1013.6 hPa | 0 mm | - | 237 W/m² | - |
| 1777125602 | 14.44° C | 97% | 1013.5 hPa | 0 mm | - | 181 W/m² | - |
| 1777125302 | 13.89° C | 96% | 1013.5 hPa | 0 mm | - | 160 W/m² | - |
| 1777125001 | 13.89° C | 97% | 1013.4 hPa | 0 mm | - | 169 W/m² | - |
| 1777124702 | 13.89° C | 96% | 1013.4 hPa | 0 mm | - | 192 W/m² | - |
| 1777124402 | 13.89° C | 97% | 1013.5 hPa | 0 mm | - | 197 W/m² | - |
| 1777124101 | 13.89° C | 97% | 1013.4 hPa | 0 mm | - | 169 W/m² | - |
| 1777123802 | 13.89° C | 97% | 1013.3 hPa | 0 mm | - | 176 W/m² | - |
| 1777123502 | 13.89° C | 98% | 1013.3 hPa | 0 mm | - | 188 W/m² | - |
| 1777123201 | 13.33° C | 99% | 1013.2 hPa | 0 mm | - | 169 W/m² | - |
| 1777122902 | 13.33° C | 99% | 1013.3 hPa | 0 mm | - | 170 W/m² | - |
* Rain latest hour (hover to see other rain measurements)
** Current wind speed in m/s (hover to see current wind gust speed)